Flag for Canada Weather past 2 weeks in Gander, Newfoundland and Labrador, Canada

Now
59 °F

Sprinkles. Fog.


Feels Like: 55 °F
Forecast: 56 / 59 °F
Wind: 20 mph from Northwest

Location: Gander Int. Airport

Current Time: Aug 21, 2014 at 2:19:50 PM

Latest Report: Aug 21, 2014 at 1:30 PM


Visibility: 3 mi

Pressure: 29.89 "Hg

Humidity: 94%

Dew point: 57 °F

Location of GanderLocation

Historic Weather in Gander — Graph

°F

Gander temperature yesterday

Maximum temperature yesterday: 66 °F (at 1:30 PM)
Minimum temperature yesterday: 57 °F (at 3:30 AM)
Average temperature yesterday: 61 °F

Past Weeks' High & Low Weather Summary

 TemperatureHumidityPressure
High73 °F (Aug 19, 2:30 PM)100% (Aug 6, 10:30 PM)30.27 "Hg (Aug 6, 10:30 PM)
Low54 °F (Aug 17, 1:30 AM)56% (Aug 16, 3:30 PM)29.59 "Hg (Aug 19, 10:30 AM)
Average61 °F93%29.98 "Hg
* Reported Aug 6 12:30 PM — Aug 21 12:30 PM, Gander, Weather by CustomWeather, © 2014

Note: Actual official high and low records may vary slightly from our data, if they occured in-between our weather recording intervals... More about our weather records

Advertising

Gander weather history for previous 24 hours

 ConditionsComfort  
Time TempWeatherWind HumidityBarometerVisibility
12:30 PM
Aug 21
59 °FSprinkles. Fog.18 mph94%29.88 "Hg2 mi
11:30 AM59 °FCool.14 mph100%29.88 "Hg1 mi
10:30 AM59 °FDrizzle. Fog.14 mph100%29.87 "Hg3 mi
9:30 AM57 °FSprinkles. Fog.14 mph100%29.85 "Hg3 mi
9:19 AM59 °FSprinkles. Fog.12 mph100%29.85 "Hg3 mi
8:30 AM59 °FDrizzle. Fog.13 mph100%29.84 "Hg1 mi
7:30 AM57 °FSprinkles. Fog.12 mph100%29.82 "Hg1 mi
6:30 AM57 °FDrizzle. Fog.9 mph100%29.80 "Hg0 mi
5:30 AM57 °FDrizzle. Fog.13 mph100%29.79 "Hg0 mi
4:30 AM57 °FSprinkles. Fog.13 mph100%29.79 "Hg0 mi
3:30 AM57 °FDrizzle. Fog.12 mph100%29.78 "Hg0 mi
2:30 AM59 °FDrizzle. Fog.9 mph100%29.78 "Hg0 mi
1:34 AM59 °FDrizzle. Fog.10 mph100%29.78 "Hg1 mi
12:30 AM61 °FSprinkles. Fog.7 mph100%29.78 "Hg0 mi
11:30 PM
Aug 20
59 °FFog.6 mph100%29.78 "Hg15 mi
10:30 PM59 °FPartly cloudy.3 mph100%29.77 "Hg15 mi
9:30 PM61 °FPartly cloudy.2 mph100%29.78 "Hg15 mi
8:30 PM61 °FSprinkles. Broken clouds.6 mph100%29.77 "Hg10 mi
7:30 PM63 °FSprinkles. Broken clouds.5 mph100%29.77 "Hg12 mi
6:30 PM63 °FSprinkles. Broken clouds.5 mph94%29.76 "Hg10 mi
5:30 PM63 °FSprinkles. Broken clouds.5 mph100%29.76 "Hg8 mi
4:30 PM66 °FSprinkles. Partly sunny.3 mph88%29.75 "Hg10 mi
3:30 PM64 °FRain showers. Cloudy.8 mph94%29.76 "Hg8 mi
3:17 PM64 °FLots of rain. Cloudy.8 mph94%29.77 "Hg8 mi
2:30 PM66 °FSprinkles. Cloudy.10 mph88%29.76 "Hg12 mi
Weather by CustomWeather, © 2014

See weather overviewHow to use our weather pages